Regional Weather Roundup
Issued by NWS Cleveland, OH

Home | Current Version | Previous Version | Graphics & Text | Print | Product List | Glossary On
Versions: 1 2 3 4 5 6 7 8 9 10 11 12 13 14 15 16 17 18 19 20 21 22 23 24 25 26 27 28 29 30 31 32 33 34 35 36 37 38 39 40 41 42 43 44 45 46 47 48 49 50
000
ASUS41 KCLE 291010
RWRCLE
OHIO REGIONAL WEATHER ROUNDUP
NATIONAL WEATHER SERVICE WILMINGTON, OH
500 AM EST MON DEC 29 2014

NOTE: "FAIR" INDICATES FEW OR NO CLOUDS BELOW 12,000 FEET WITH NO
SIGNIFICANT WEATHER AND/OR OBSTRUCTIONS TO VISIBILITY.

OHZ001>008-015>018-024>027-034-035-043-044-291100-
   NORTHWEST OHIO

CITY           SKY/WX    TMP DP  RH WIND       PRES   REMARKS
DEFIANCE       CLEAR     21  18  88 CALM      30.26S
FINDLAY        PTCLDY    25  20  81 N5        30.23F WCI  19
TOLEDO EXPRESS CLEAR     19  17  92 S3        30.26R
TOLEDO METCALF CLEAR     25  17  72 CALM      30.27R
LIMA           CLEAR     26  22  84 N5        30.22F WCI  20
$$

OHZ009>014-019>023-028>033-038-089-291100-
   NORTHEAST OHIO

CITY           SKY/WX    TMP DP  RH WIND       PRES   REMARKS
CLE-HOPKINS    CLOUDY    30  26  85 W5        30.24R WCI  25
CLE-LAKEFRONT  CLOUDY    33  25  72 N9        30.22R WCI  25
CUY CO. ARPT   NOT AVBL
LORAIN-ELYRIA  MOCLDY    29  25  85 NW3       30.23R
ASHTABULA      CLOUDY    30  26  85 SW3       30.20S
AKRON-CANTON   CLEAR     25  22  88 NW6       30.19S WCI  18
WOOSTER        CLEAR     25  23  92 N6        30.20F WCI  18
MANSFIELD      PTCLDY    21  20  96 NW6       30.19F WCI  13
YOUNGSTOWN     CLOUDY    30  27  88 CALM      30.18R
$$

OHZ042-051>053-060>062-070>072-077>081-291100-
  SOUTHWEST OHIO

CITY           SKY/WX    TMP DP  RH WIND       PRES   REMARKS
CINC-COVINGTON CLOUDY    30  24  78 NE12      30.20F WCI  20
CINC-LUNKEN    CLOUDY    30  27  88 N7        30.24F WCI  23
HAMILTON       MOCLDY    27  25  92 N3        30.24F
DAYTON         CLEAR     25  22  88 N6        30.22F FOG     WCI  18
WRIGHT-PAT AFB CLEAR     25  23  92 N5        30.22F WCI  19
DAYTON GENERAL CLEAR     25  23  92 N8        30.20F FOG     WCI  16
WILMINGTON     CLOUDY    28  25  88 N9        30.19F FOG     WCI  19
$$

OHZ036-037-039>041-045>050-054>059-063>069-073>076-082>088-291100-
  CENTRAL AND SOUTHEAST OHIO

CITY           SKY/WX    TMP DP  RH WIND       PRES   REMARKS
COLUMBUS       CLEAR     26  23  88 N6        30.21F WCI  19
OSU AIRPORT    CLEAR     24  21  88 N6        30.21F WCI  17
BOLTON FIELD   CLEAR     26  24  93 N6        30.21F WCI  19
RICKENBACK AFB PTCLDY    27  24  89 N7        30.21F WCI  20
NEWARK         CLEAR     28  24  85 CALM      30.19F
MARION         PTCLDY    24  21  88 N7        30.21F WCI  16
LANCASTER      CLOUDY    30  26  85 N3        30.20F
ZANESVILLE     CLEAR     27  24  89 N3        30.19F
NEW PHILLY     CLEAR     27  24  89 CALM      30.21S
$$



USA.gov is the U.S. government's official web portal to all federal, state and local government web resources and services.